User: anonymous   Login
Location: Carr Mill
(33.2054°N, 85.9439°W)
Time: 02:50:11
(UTC+00:00)
Language:

Cosmos 1656 - Orbit

View from above orbital plane
View from above orbital plane
View from above satellite
View from above satellite

Ground track
Ground track

The orbit data is extracted from the following two-line orbital elements,

1 15755U 85042A   21015.57179484 -.00000022  00000-0  11899-4 0  9993
2 15755  71.1125 126.5649 0035441 182.7743 177.3193 14.20458949846212
Epoch (UTC): 15 January 2021 13:43:23
Eccentricity: 0.0035441
inclination: 71.1125°
perigee height: 798 km
apogee height: 849 km
right ascension of ascending node: 126.5649°
argument of perigee: 182.7743°
revolutions per day: 14.20458949
mean anomaly at epoch: 177.3193°
orbit number at epoch: 84621

The dashed part of the orbit path shows where the satellite is in the earth's shadow,  

DLR